Wind_Speed
44 45 45 46 47 47 48 49 49 48 47 48 50 51 53 54 56 57 59 60 61 63 64 65 66 68 70 71 72 73 73 74 75 76 77 77 77 78
45 46 47 47 48 49 49 50 51 51 50 51 52 54 56 58 60 61 62 63 64 65 67 68 70 72 73 74 75 76 77 78 78 78 78 78 78 78
46 47 47 48 49 50 50 51 52 53 54 54 56 57 60 61 63 64 65 66 67 69 70 72 73 75 75 76 77 77 77 77 76 76 76 77 77 77
46 47 49 50 51 51 52 53 55 56 57 57 59 61 63 64 65 66 67 69 70 72 73 74 75 76 76 76 75 75 74 74 73 73 73 73 73 73
47 49 50 51 52 53 54 56 57 59 60 62 63 64 65 66 67 68 70 71 72 73 75 75 75 74 74 73 73 72 71 70 69 69 68 67 67 66
48 50 52 53 54 55 57 58 60 61 63 65 66 66 67 68 69 70 70 71 72 73 73 73 72 71 71 70 69 68 67 66 65 63 61 59 58 57
50 51 53 54 56 57 59 60 62 64 65 67 67 67 68 69 71 71 71 71 70 70 70 69 68 67 66 66 65 64 62 59 56 54 52 51 49 48
51 53 54 55 57 59 61 63 65 66 68 68 69 69 70 71 71 71 71 70 68 68 67 65 64 63 62 61 60 57 54 51 48 46 45 43 42 41
52 53 55 56 59 61 62 64 66 68 70 70 70 71 71 71 71 70 69 68 67 65 64 60 60 58 57 56 54 51 47 44 42 40 39 38 36 35
53 54 56 58 60 62 64 66 67 68 69 70 71 71 70 70 69 68 67 65 63 61 60 57 54 52 52 51 48 44 40 38 36 35 33 31 30 30
53 55 58 60 62 64 66 67 67 68 69 70 70 69 68 68 68 67 64 62 59 57 55 53 50 48 46 44 41 37 34 32 30 28 26 25 25 24
54 57 59 61 63 65 67 67 68 68 69 68 67 67 66 66 65 64 61 58 56 52 50 49 46 43 39 36 34 31 28 26 24 22 21 20 19 19
56 58 60 62 64 66 67 68 68 68 67 66 65 64 64 63 61 59 57 54 52 49 47 44 40 37 34 29 27 26 24 22 20 18 17 16 16 15
57 59 61 63 65 66 67 67 67 67 65 64 63 62 61 59 57 55 53 51 49 46 43 39 35 32 28 25 23 22 21 19 17 16 15 14 13 13
59 61 63 64 65 66 66 66 66 65 64 62 61 60 58 56 53 51 49 47 44 41 37 33 29 26 24 22 20 18 18 16 14 14 13 12 11 11
60 62 63 64 64 65 65 66 65 64 63 61 59 57 55 52 49 46 44 41 38 35 31 27 25 23 21 19 17 16 15 14 13 12 11 10 10 9
61 62 62 63 64 65 65 65 64 63 61 58 55 53 50 47 44 42 39 36 33 29 26 24 22 21 19 16 15 14 13 11 11 10 9 9 8 7
61 61 62 63 64 64 64 63 62 60 56 53 51 49 46 43 40 37 34 31 28 25 22 21 20 19 16 14 13 12 11 10 9 9 8 7 6 6
61 62 63 63 63 63 62 61 58 55 52 49 46 44 41 38 36 33 30 27 25 22 20 19 18 16 14 12 11 10 9 8 8 7 7 6 6 5
62 63 63 63 62 61 59 57 54 51 48 44 42 39 37 34 31 29 26 24 22 20 18 17 16 14 12 11 10 8 7 7 6 6 5 5 5 4
62 62 62 61 60 58 55 52 49 46 43 40 38 36 34 31 28 26 24 22 20 18 16 15 14 12 10 9 8 7 6 6 6 5 5 4 4 3
62 61 60 58 56 54 51 48 45 42 40 38 36 33 30 28 26 24 22 20 18 15 14 14 12 10 9 8 7 6 6 5 5 5 4 4 3 3
61 60 58 56 53 50 47 44 41 39 38 36 33 30 28 26 24 22 21 18 16 14 13 12 11 9 7 7 6 6 5 5 4 4 3 3 2 2
Wind_Direction
297 298 299 299 300 300 300 300 299 299 299 299 298 298 298 297 297 296 296 296 295 294 293 292 291 290 289 287 286 284 283 281 280 278 277 275 274 272
298 299 299 300 300 301 301 300 300 300 300 300 300 299 299 298 298 297 297 296 295 295 294 293 292 291 289 288 286 285 283 282 281 279 277 276 274 273
298 299 299 300 301 301 301 301 301 301 301 301 301 300 300 299 299 298 298 297 296 296 295 294 293 292 290 289 288 287 285 284 282 281 279 277 274 272
298 299 300 301 301 301 301 302 302 302 302 302 302 301 301 300 299 299 299 298 297 297 296 295 294 292 291 290 289 288 287 286 284 282 280 278 277 274
298 299 300 301 302 302 302 302 302 303 303 303 303 302 301 300 300 300 300 300 299 298 297 296 294 294 292 291 290 289 288 286 285 283 281 279 277 275
299 300 301 302 302 302 303 303 303 303 304 304 304 303 302 301 301 301 301 301 300 299 298 297 296 295 293 293 292 291 289 288 287 284 282 280 277 274
300 301 302 303 303 303 303 304 304 304 304 304 304 303 303 302 302 302 302 302 301 300 299 298 297 296 296 295 294 293 292 290 288 285 283 280 278 275
300 301 302 303 303 304 304 305 305 305 305 305 304 304 304 304 303 303 303 303 302 300 300 299 298 298 297 296 296 295 293 291 288 286 283 281 278 274
301 302 303 303 304 305 305 306 306 306 306 306 306 306 305 304 304 304 304 304 303 302 301 300 299 299 298 298 297 296 293 291 288 286 284 281 277 274
302 302 303 304 305 306 306 307 307 307 306 306 306 306 305 305 305 305 305 305 305 304 302 302 301 300 300 300 298 296 293 291 289 287 284 281 277 274
302 303 304 306 306 307 307 308 308 308 307 307 307 307 306 306 306 306 306 306 306 305 303 303 303 302 301 300 298 296 295 293 291 289 285 281 279 276
303 305 306 307 307 308 309 309 309 308 308 308 308 307 308 307 307 307 307 306 306 305 304 304 304 303 302 299 297 297 297 296 294 290 286 283 280 278
304 305 306 308 308 309 309 309 310 310 310 309 308 308 308 308 308 307 307 307 307 307 306 306 305 304 303 299 297 297 297 297 294 291 287 284 281 278
306 307 307 308 309 309 310 310 310 310 310 310 310 310 309 309 309 308 308 308 308 308 307 306 305 305 303 300 297 297 298 297 294 289 287 284 281 279
307 308 308 308 309 310 310 310 311 311 311 311 311 310 310 310 309 309 309 309 308 308 307 306 306 305 304 301 298 298 299 298 294 290 287 284 283 280
308 309 309 309 310 311 311 311 311 311 311 311 310 310 310 310 310 310 310 309 309 308 307 306 305 305 304 301 299 299 299 297 295 291 287 286 285 281
309 309 310 310 311 311 311 311 311 311 311 311 311 311 311 311 310 310 310 310 309 307 305 304 304 305 303 299 299 299 297 294 294 292 288 286 284 279
310 310 311 311 312 312 312 312 312 312 311 311 311 311 311 310 310 311 310 310 309 307 303 303 304 304 300 297 299 299 296 293 292 289 283 283 284 281
311 311 312 312 312 312 312 313 313 313 312 311 311 311 311 311 310 310 310 310 309 306 302 302 302 301 297 296 298 296 293 292 291 286 281 282 283 282
311 312 312 312 313 313 313 313 313 313 313 312 312 312 312 311 310 310 309 309 307 304 302 301 301 299 293 293 295 292 289 288 287 285 284 284 281 276
312 313 313 313 313 313 313 313 313 314 313 313 312 312 311 310 309 308 308 307 304 301 300 300 300 295 288 287 288 286 284 284 284 284 285 280 272 264
313 313 313 313 313 313 313 313 313 313 313 313 312 311 310 309 307 307 307 305 302 299 298 298 296 289 282 279 278 279 280 281 279 281 280 272 259 248
314 314 314 313 313 313 312 312 312 312 312 312 311 309 308 307 306 305 304 302 297 295 295 295 291 281 274 269 267 271 275 277 273 269 261 247 233 223
Height
5696 5692 5688 5683 5678 5674 5669 5664 5660 5656 5652 5645 5639 5632 5627 5622 5616 5611 5605 5599 5594 5588 5582 5577 5571 5566 5560 5555 5550 5545 5541 5537 5533 5530 5527 5525 5523 5522
5686 5682 5677 5673 5668 5663 5658 5653 5647 5643 5639 5634 5627 5620 5613 5607 5601 5595 5589 5583 5576 5570 5563 5557 5551 5545 5538 5532 5527 5521 5517 5512 5508 5504 5501 5498 5496 5495
5676 5672 5667 5662 5657 5651 5646 5641 5635 5629 5625 5621 5613 5606 5599 5592 5585 5578 5571 5565 5558 5550 5543 5536 5529 5522 5515 5508 5502 5496 5491 5486 5482 5478 5474 5472 5469 5468
5666 5661 5656 5651 5646 5640 5634 5628 5622 5616 5610 5606 5600 5591 5584 5576 5569 5561 5554 5546 5538 5530 5522 5514 5506 5498 5491 5484 5478 5472 5466 5461 5457 5452 5449 5446 5444 5441
5655 5650 5645 5639 5634 5628 5622 5615 5609 5602 5595 5589 5583 5575 5567 5558 5551 5544 5535 5527 5518 5509 5500 5492 5484 5476 5468 5461 5455 5449 5443 5438 5433 5429 5424 5421 5419 5417
5644 5639 5633 5627 5621 5615 5609 5602 5595 5588 5580 5573 5566 5558 5549 5540 5532 5525 5518 5508 5498 5488 5479 5470 5462 5454 5446 5439 5433 5427 5421 5416 5411 5406 5402 5400 5398 5396
5633 5627 5621 5615 5608 5601 5594 5587 5580 5572 5564 5556 5548 5540 5532 5522 5514 5505 5497 5490 5480 5468 5460 5451 5442 5434 5426 5419 5412 5407 5401 5395 5391 5387 5384 5382 5380 5379
5621 5615 5609 5602 5595 5587 5580 5572 5563 5554 5546 5538 5530 5521 5513 5503 5494 5485 5476 5469 5462 5453 5442 5434 5424 5416 5408 5401 5394 5388 5383 5378 5374 5371 5368 5366 5365 5364
5609 5603 5596 5589 5581 5574 5566 5557 5547 5536 5527 5519 5511 5502 5493 5485 5475 5467 5457 5448 5441 5431 5422 5417 5408 5400 5392 5384 5378 5373 5368 5363 5360 5357 5355 5353 5352 5352
5597 5590 5583 5576 5567 5559 5551 5542 5532 5521 5511 5501 5492 5483 5474 5464 5455 5447 5439 5432 5424 5413 5404 5399 5393 5386 5378 5370 5364 5359 5355 5351 5348 5346 5344 5343 5342 5341
5584 5577 5569 5562 5554 5545 5536 5527 5517 5506 5495 5484 5475 5465 5455 5446 5437 5429 5421 5414 5408 5400 5390 5384 5379 5373 5366 5358 5352 5348 5344 5341 5339 5337 5335 5334 5333 5333
5572 5564 5556 5547 5538 5528 5519 5510 5501 5491 5480 5470 5459 5449 5439 5429 5420 5411 5404 5397 5391 5385 5378 5371 5365 5359 5356 5349 5343 5339 5336 5334 5332 5330 5329 5328 5327 5327
5558 5550 5542 5532 5523 5513 5503 5493 5483 5474 5464 5454 5445 5434 5424 5414 5405 5396 5389 5382 5376 5370 5364 5359 5354 5348 5344 5341 5336 5333 5330 5328 5326 5325 5324 5323 5322 5322
5545 5536 5527 5518 5508 5498 5487 5477 5467 5457 5448 5439 5430 5420 5410 5401 5392 5384 5377 5370 5364 5359 5353 5348 5344 5340 5336 5333 5330 5328 5325 5324 5322 5321 5320 5319 5319 5318
5530 5521 5512 5502 5492 5482 5472 5462 5452 5442 5433 5424 5415 5406 5397 5388 5380 5373 5366 5359 5353 5348 5344 5340 5337 5333 5330 5328 5325 5323 5321 5320 5318 5317 5316 5316 5315 5315
5516 5507 5497 5487 5477 5467 5457 5447 5437 5427 5418 5410 5401 5393 5384 5376 5369 5362 5356 5350 5345 5340 5336 5333 5330 5328 5325 5323 5321 5319 5317 5316 5315 5314 5313 5313 5312 5312
5501 5492 5482 5473 5463 5453 5443 5433 5423 5413 5404 5395 5387 5380 5372 5365 5358 5352 5347 5342 5338 5334 5331 5328 5325 5323 5321 5319 5317 5316 5314 5313 5312 5311 5310 5310 5310 5309
5486 5477 5468 5458 5449 5439 5429 5419 5409 5400 5391 5383 5376 5369 5362 5355 5350 5344 5339 5335 5331 5328 5325 5323 5321 5319 5317 5316 5315 5313 5312 5311 5310 5309 5309 5308 5308 5308
5471 5462 5453 5443 5434 5424 5415 5406 5397 5388 5379 5372 5365 5359 5352 5347 5342 5337 5333 5329 5326 5323 5321 5319 5317 5315 5314 5312 5312 5311 5309 5309 5308 5308 5307 5307 5307 5306
5456 5447 5438 5428 5419 5410 5401 5393 5384 5376 5369 5362 5355 5350 5344 5339 5335 5331 5327 5324 5321 5318 5316 5314 5313 5312 5310 5310 5309 5308 5308 5307 5306 5306 5306 5306 5306 5306
5442 5432 5423 5414 5405 5397 5389 5381 5373 5366 5359 5353 5347 5342 5337 5333 5329 5325 5322 5319 5316 5314 5312 5311 5309 5309 5308 5307 5307 5307 5306 5306 5305 5305 5305 5305 5305 5305
5428 5418 5409 5400 5392 5384 5377 5370 5363 5356 5350 5344 5339 5334 5330 5326 5323 5320 5317 5314 5312 5310 5309 5308 5306 5306 5306 5305 5305 5305 5305 5305 5305 5304 5304 5304 5304 5304
5414 5405 5396 5388 5380 5373 5366 5359 5353 5347 5342 5336 5332 5327 5323 5320 5317 5314 5312 5310 5308 5307 5306 5305 5304 5303 5303 5304 5304 5304 5304 5304 5304 5304 5304 5304 5304 5304